Location: St. Louis
(38.6270°N, 90.1994°W)
Time: 19:05:46
(UTC-05:00)

ISS - Pass Details

Date: 11 February 2014
Orbit: 402 x 404 km, 51.6° (Epoch: 28 May)

Event Time Altitude Azimuth Distance (km) Brightness Sun altitude
Rises 19:22:41 0° 286° (WNW) 2,359 1.9 -21.7°
Reaches altitude 10° 19:25:47 10° 317° (NW) 1,500 0.1 -22.3°
Maximum altitude 19:27:19 13° 344° (NNW) 1,359 -0.5 -22.6°
Enters shadow 19:27:34 12° 349° (N) 1,363 -0.6 -22.6°
